GW2624 Weather Reports


time (UTC)temp
F
wind
direction
speed
knots
gust
knots
rain 1hr
in
rain 24hr
in
rain mn
in
humidity
%
barometer
mb
20260508072905 44 144 0.9 4.3 0.00 0.00 0.00 34 1011.8
20260508071405 45 144 0.9 2.6 0.00 0.00 0.00 34 1011.7
20260508070905 45 144 1.7 2.6 0.00 0.00 0.00 34 1011.7
20260508070405 45 148 1.7 2.6 0.00 0.00 0.00 34 1011.7
20260508065404 45 149 0.9 1.7 0.00 0.00 0.00 33 1011.9
20260508063905 46 147 2.6 4.3 0.00 0.00 0.00 33 1011.9
20260508063405 46 144 0.9 2.6 0.00 0.00 0.00 33 1011.9
20260508062904 46 146 2.6 2.6 0.00 0.00 0.00 31 1011.9
20260508062404 46 146 1.7 2.6 0.00 0.00 0.00 32 1012.0
20260508061905 46 141 1.7 2.6 0.00 0.00 0.00 32 1012.0
20260508061404 46 141 1.7 4.3 0.00 0.00 0.00 33 1012.0
20260508055405 45 151 0.0 0.9 0.00 0.00 0.00 33 1012.1
20260508054905 45 151 0.0 0.0 0.00 0.00 0.00 34 1012.1
20260508054405 46 151 0.0 0.0 0.00 0.00 0.00 34 1012.1
20260508053905 46 151 0.0 0.0 0.00 0.00 0.00 34 1012.1
20260508050904 47 151 0.0 2.6 0.00 0.00 0.00 32 1012.1
20260508050405 48 157 0.9 2.6 0.00 0.00 0.00 32 1012.1
20260508045905 48 148 0.0 0.9 0.00 0.00 0.00 32 1012.1
20260508044904 49 148 0.0 2.6 0.00 0.00 0.00 31 1012.0
20260508044405 49 148 0.0 2.6 0.00 0.00 0.00 30 1012.1
20260508043905 49 148 2.6 2.6 0.00 0.00 0.00 29 1012.1
20260508042404 50 157 0.0 2.6 0.00 0.00 0.00 29 1012.0
20260508035404 54 5 0.0 1.7 0.00 0.00 0.00 24 1012.0
20260508032904 57 0 0.9 4.3 0.00 0.00 0.00 20 1011.7
20260508031905 58 127 0.9 4.3 0.00 0.00 0.00 17 1011.4
20260508031404 59 179 0.9 4.3 0.00 0.00 0.00 16 1011.3
20260508030404 60 165 1.7 6.1 0.00 0.00 0.00 16 1011.0
20260508025904 60 138 1.7 2.6 0.00 0.00 0.00 15 1010.9
20260508024904 61 131 0.9 4.3 0.00 0.00 0.00 15 1010.7
20260508024404 61 149 1.7 5.2 0.00 0.00 0.00 15 1010.7
20260508022405 62 136 1.7 6.1 0.00 0.00 0.00 14 1010.7
20260508021905 62 139 1.7 5.2 0.00 0.00 0.00 14 1010.8
20260508021405 63 137 1.7 5.2 0.00 0.00 0.00 14 1010.7
20260508020904 63 129 2.6 4.3 0.00 0.00 0.00 14 1010.7
20260508020405 63 148 1.7 4.3 0.00 0.00 0.00 14 1010.7
20260508014404 65 0 1.7 4.3 0.00 0.00 0.00 13 1010.6
20260508012404 66 167 2.6 7.8 0.00 0.00 0.00 13 1010.6
20260508011405 67 149 2.6 7.0 0.00 0.00 0.00 13 1010.5
20260508010904 67 175 1.7 4.3 0.00 0.00 0.00 12 1010.5
20260508010404 67 134 0.9 4.3 0.00 0.00 0.00 12 1010.5
20260508005405 68 214 1.7 4.3 0.00 0.00 0.00 13 1010.5
20260508004904 68 160 1.7 4.3 0.00 0.00 0.00 13 1010.4
20260508003404 68 139 2.6 6.1 0.00 0.00 0.00 13 1010.6
20260508002904 69 158 2.6 6.1 0.00 0.00 0.00 13 1010.5
20260508002405 69 204 2.6 5.2 0.00 0.00 0.00 14 1010.6
20260508001404 69 158 1.7 6.1 0.00 0.00 0.00 14 1010.6
20260508000904 70 199 1.7 6.1 0.00 0.00 0.00 15 1010.6
20260508000405 70 173 2.6 6.1 0.00 0.00 0.00 15 1010.6
20260507233405 71 232 1.7 6.1 0.00 0.00 0.00 18 1010.7
20260507232905 71 263 0.9 2.6 0.00 0.00 0.00 18 1010.8
20260507231904 70 218 1.7 4.3 0.00 0.00 0.00 19 1011.1
20260507230405 70 135 1.7 7.0 0.00 0.00 0.00 18 1011.4
20260507224904 70 222 0.9 5.2 0.00 0.00 0.00 17 1011.6
20260507223405 70 63 1.7 4.3 0.00 0.00 0.00 17 1011.9
20260507222905 70 97 1.7 2.6 0.00 0.00 0.00 16 1012.0
20260507221405 70 331 1.7 2.6 0.00 0.00 0.00 17 1012.4
20260507220404 70 114 0.9 2.6 0.00 0.00 0.00 17 1012.6
20260507215904 70 312 1.7 5.2 0.00 0.00 0.00 16 1012.6
20260507212905 69 188 0.9 5.2 0.00 0.00 0.00 15 1013.2
20260507210904 70 301 1.7 7.0 0.00 0.00 0.00 16 1013.6
20260507205904 70 218 2.6 7.8 0.00 0.00 0.00 13 1013.8
20260507205404 70 290 1.7 8.7 0.00 0.00 0.00 13 1013.8
20260507204904 70 197 2.6 8.7 0.00 0.00 0.00 11 1013.9
20260507204404 71 344 1.7 6.1 0.00 0.00 0.00 13 1014.1
20260507203405 70 33 2.6 7.8 0.00 0.00 0.00 12 1014.2
20260507202905 70 261 2.6 6.1 0.00 0.00 0.00 12 1014.4
20260507202404 70 194 1.7 4.3 0.00 0.00 0.00 11 1014.5
20260507201905 70 29 1.7 7.8 0.00 0.00 0.00 14 1014.6
20260507201404 70 64 2.6 7.8 0.00 0.00 0.00 11 1014.7
20260507200904 70 268 1.7 5.2 0.00 0.00 0.00 14 1014.8
20260507200404 69 318 1.7 5.2 0.00 0.00 0.00 14 1014.8
20260507195905 69 27 1.7 5.2 0.00 0.00 0.00 11 1014.9
20260507195404 69 74 1.7 7.8 0.00 0.00 0.00 11 1015.0
20260507194904 68 300 1.7 7.8 0.00 0.00 0.00 13 1015.0
20260507194404 68 222 2.6 7.0 0.00 0.00 0.00 14 1015.0
20260507193905 68 235 1.7 6.1 0.00 0.00 0.00 16 1015.1
20260507192905 68 262 1.7 7.0 0.00 0.00 0.00 13 1015.2
20260507192405 67 324 1.7 7.0 0.00 0.00 0.00 14 1015.2
20260507190904 67 269 1.7 7.0 0.00 0.00 0.00 15 1015.4
20260507184405 65 288 1.7 10.4 0.00 0.00 0.00 19 1015.8
20260507183904 65 247 3.5 10.4 0.00 0.00 0.00 18 1015.9
20260507183404 65 326 2.6 10.4 0.00 0.00 0.00 20 1016.0
20260507181904 64 347 1.7 4.3 0.00 0.00 0.00 21 1016.3
20260507181404 63 9 0.9 4.3 0.00 0.00 0.00 25 1016.4
20260507175404 62 210 1.7 7.0 0.00 0.00 0.00 26 1016.8
20260507174904 61 323 1.7 7.0 0.00 0.00 0.00 27 1016.9
20260507172405 59 312 1.7 5.2 0.00 0.00 0.00 33 1017.1
20260507171404 58 308 1.7 6.1 0.00 0.00 0.00 38 1017.3
20260507163904 53 287 1.7 5.2 0.00 0.00 0.00 46 1017.9
20260507162905 52 281 1.7 7.0 0.00 0.00 0.00 49 1018.2
20260507162406 51 308 1.7 2.6 0.00 0.00 0.00 51 1018.4
20260507161905 50 1 1.7 2.6 0.00 0.00 0.00 52 1018.5
20260507160404 49 299 0.9 7.0 0.00 0.00 0.00 56 1018.7
20260507155904 48 6 1.7 7.0 0.00 0.00 0.00 57 1018.8
20260507154904 47 319 0.9 4.3 0.00 0.00 0.00 63 1019.0
20260507153905 46 7 0.9 5.2 0.00 0.00 0.00 63 1019.1
20260507151904 45 267 1.7 5.2 0.00 0.00 0.00 66 1019.0
20260507150905 44 242 1.7 5.2 0.00 0.00 0.00 68 1019.0
20260507145405 42 241 0.9 5.2 0.00 0.00 0.00 71 1019.0
20260507144904 42 234 1.7 5.2 0.00 0.00 0.00 72 1019.0
20260507143405 41 233 1.7 2.6 0.00 0.00 0.00 75 1019.2
20260507142904 40 333 0.9 2.6 0.00 0.00 0.00 77 1019.3
20260507141904 39 321 0.9 2.6 0.00 0.00 0.00 79 1019.5
20260507140904 39 262 1.7 4.3 0.00 0.00 0.00 80 1019.7
20260507135905 38 191 0.0 1.7 0.00 0.00 0.00 83 1019.8
20260507135405 37 141 0.0 1.7 0.00 0.00 0.00 84 1019.9
20260507134904 37 141 0.9 1.7 0.00 0.00 0.00 84 1019.8
20260507133905 34 0 0.9 1.7 0.00 0.00 0.00 85 1019.7
20260507131906 32 141 0.9 2.6 0.00 0.00 0.00 86 1019.6
20260507130405 30 141 0.9 2.6 0.00 0.00 0.00 87 1019.8
20260507124404 29 141 0.0 0.0 0.00 0.00 0.00 87 1019.7
20260507123904 29 141 0.0 0.9 0.00 0.00 0.00 86 1019.7
20260507123405 29 141 0.0 0.9 0.00 0.00 0.00 86 1019.6
20260507121905 29 141 0.0 0.9 0.00 0.00 0.00 86 1019.8
20260507115404 29 141 0.0 0.0 0.00 0.00 0.00 85 1019.7
20260507114905 29 141 0.0 0.0 0.00 0.00 0.00 85 1019.7
20260507113404 30 141 0.0 0.0 0.00 0.00 0.00 85 1019.6
20260507112904 30 141 0.0 0.0 0.00 0.00 0.00 85 1019.5
20260507111905 30 141 0.0 0.9 0.00 0.00 0.00 84 1019.1
20260507111405 30 141 0.0 0.9 0.00 0.00 0.00 84 1019.1
20260507105404 31 141 0.0 0.9 0.00 0.00 0.00 84 1019.0
20260507104904 31 141 0.0 0.9 0.00 0.00 0.00 84 1019.0
20260507103904 31 141 0.0 0.9 0.00 0.00 0.00 83 1019.1
20260507103405 31 141 0.0 0.9 0.00 0.00 0.00 83 1019.1
20260507102905 32 141 0.0 1.7 0.00 0.00 0.00 83 1019.0
20260507102404 32 141 0.0 1.7 0.00 0.00 0.00 83 1019.1
20260507101904 32 141 0.0 2.6 0.00 0.00 0.00 83 1019.1
20260507100904 32 141 0.9 2.6 0.00 0.00 0.00 83 1019.0
20260507095904 32 141 0.9 2.6 0.00 0.00 0.00 83 1019.0
20260507093405 31 141 0.9 2.6 0.00 0.00 0.00 82 1019.1
20260507091905 31 141 0.0 2.6 0.00 0.00 0.00 82 1019.0
20260507090905 31 141 0.9 2.6 0.00 0.00 0.00 82 1019.1
20260507090404 31 141 1.7 2.6 0.00 0.00 0.00 82 1018.9
20260507085904 32 141 0.0 0.0 0.00 0.00 0.00 81 1019.0
20260507085404 32 141 0.0 1.7 0.00 0.00 0.00 81 1018.9
20260507083404 32 141 0.0 1.7 0.00 0.00 0.00 81 1018.8
20260507082905 32 141 0.0 1.7 0.00 0.00 0.00 81 1018.7
20260507082404 32 141 0.0 1.7 0.00 0.00 0.00 81 1018.8
20260507081904 32 141 0.9 2.6 0.00 0.00 0.00 82 1018.7
20260507081404 32 141 1.7 2.6 0.00 0.00 0.00 83 1018.7
20260507080404 32 140 2.6 6.1 0.00 0.00 0.00 83 1018.5
20260507075905 31 126 1.7 2.6 0.00 0.00 0.00 84 1018.5
20260507074904 31 108 0.9 1.7 0.00 0.00 0.00 83 1018.4
20260507073905 32 108 0.0 0.0 0.00 0.00 0.00 83 1018.3